Weather History for PAPG - December, 2011

Change the Weather History Date:

Monday, December 12, 2011

  Actual Average Record
Temperature  
Mean Temperature 32 °F -  
Max Temperature 33 °F 34 °F 50 °F (2002)
Min Temperature 32 °F 28 °F 20 °F (1985)
Degree Days  
Heating Degree Days 32    
Moisture  
Dew Point 31 °F    
Average Humidity 90    
Maximum Humidity 100    
Minimum Humidity 87    
Precipitation  
Precipitation 0.00 in - - ()
Sea Level Pressure  
Sea Level Pressure 29.92 in    
Wind  
Wind Speed 3 mph (SW)    
Max Wind Speed 8 mph    
Max Gust Speed -    
Visibility 7 miles    
Events      
Averages and records for this station are not official NWS values.
T = Trace of Precipitation, MM = Missing Value Source: NWS Daily Summary

Daily Weather History Graph

Daily Weather History Graph

Search for Another Location

Airport or City:

Trip Planner

Search our weather history database for the weather conditions in past years. The results will help you decide how hot, cold, wet, or windy it might be!

Date:

Astronomy

Dec. 12, 2011 Rise Set
Actual Time 8:19 AM AKST 3:11 PM AKST
Civil Twilight 7:30 AM AKST 4:00 PM AKST
Nautical Twilight 6:40 AM AKST 4:50 PM AKST
Astronomical Twilight 5:54 AM AKST 5:36 PM AKST
Moon 5:43 PM AKST (12/12) 9:45 AM AKST (12/12)
Length of Visible Light 8h 29m
Length of Day
6h 51m
Waning Gibbous, 95% of the Moon is Illuminated
Dec 12
Waning Gibbous
Dec 17
Last Quarter
Dec 24
New
Dec 31
First Quarter
Jan 8
Full

Hourly Weather History & Observations

Time (AKST) Temp. Windchill Dew Point Humidity Pressure Visibility Wind Dir Wind Speed Gust Speed Precip Events Conditions
12:16 AM 33.8 °F 28.6 °F 30.2 °F 87% 30.03 in 3.0 mi East 5.8 mph - N/A   Overcast
12:36 AM 33.8 °F 30.8 °F 30.2 °F 87% 30.02 in 3.0 mi East 3.5 mph - N/A   Overcast
12:56 AM 33.8 °F - 30.2 °F 87% 30.00 in 4.0 mi Calm Calm - N/A   Overcast
1:16 AM 33.8 °F 29.6 °F 30.2 °F 87% 29.99 in 4.0 mi North 4.6 mph - N/A   Overcast
1:36 AM 33.8 °F - 30.2 °F 87% 29.98 in 4.0 mi Calm Calm - N/A   Overcast
1:56 AM 33.8 °F - 30.2 °F 87% 29.98 in 4.0 mi Calm Calm - N/A   Overcast
2:16 AM 33.8 °F 30.8 °F 30.2 °F 87% 29.97 in 4.0 mi NNE 3.5 mph - N/A   Overcast
2:36 AM 33.8 °F - 30.2 °F 87% 29.95 in 5.0 mi Calm Calm - N/A   Overcast
2:56 AM 33.8 °F 30.8 °F 30.2 °F 87% 29.96 in 5.0 mi SW 3.5 mph - N/A   Overcast
3:16 AM 32.0 °F - 30.2 °F 93% 29.94 in 4.0 mi Calm Calm - N/A   Overcast
3:36 AM 32.0 °F - 30.2 °F 93% 29.93 in 5.0 mi Calm Calm - N/A   Overcast
3:56 AM 33.8 °F 29.6 °F 30.2 °F 87% 29.93 in 5.0 mi WNW 4.6 mph - N/A   Overcast
4:16 AM 33.8 °F 30.8 °F 30.2 °F 87% 29.92 in 4.0 mi NW 3.5 mph - N/A   Overcast
4:36 AM 32.0 °F 28.7 °F 30.2 °F 93% 29.91 in 4.0 mi WNW 3.5 mph - N/A   Overcast
4:56 AM 33.8 °F 30.8 °F 30.2 °F 87% 29.91 in 5.0 mi NW 3.5 mph - N/A   Overcast
5:16 AM 32.0 °F - 30.2 °F 93% 29.91 in 5.0 mi Calm Calm - N/A   Overcast
5:36 AM 32.0 °F - 30.2 °F 93% 29.91 in 5.0 mi Calm Calm - N/A   Overcast
5:56 AM 32.0 °F 28.7 °F 30.2 °F 93% 29.91 in 3.0 mi SW 3.5 mph - N/A   Overcast
6:16 AM 32.0 °F - 30.2 °F 93% 29.90 in 3.0 mi Calm Calm - N/A   Overcast
6:36 AM 32.0 °F - 30.2 °F 93% 29.90 in 3.0 mi Calm Calm - N/A   Overcast
6:56 AM 32.0 °F - 30.2 °F 93% 29.89 in 3.0 mi Calm Calm - N/A   Overcast
7:16 AM 32.0 °F - 30.2 °F 93% 29.89 in 3.0 mi Calm Calm - N/A   Overcast
7:36 AM 33.8 °F - 30.2 °F 87% 29.89 in 2.0 mi Calm Calm - N/A   Overcast
7:56 AM 33.8 °F - 30.2 °F 87% 29.89 in 4.0 mi Calm Calm - N/A   Overcast
8:16 AM 33.8 °F - 30.2 °F 87% 29.89 in 4.0 mi Calm Calm - N/A   Overcast
8:36 AM 33.8 °F 30.8 °F 32.0 °F 93% 29.89 in 10.0 mi West 3.5 mph - N/A   Overcast
8:56 AM 33.8 °F - 30.2 °F 87% 29.89 in 10.0 mi Calm Calm - N/A   Overcast
9:16 AM 33.8 °F 29.6 °F 30.2 °F 87% 29.90 in 10.0 mi WSW 4.6 mph - N/A   Overcast
9:36 AM 33.8 °F - 30.2 °F 87% 29.90 in 10.0 mi Calm Calm - N/A   Overcast
9:56 AM 33.8 °F 30.8 °F 32.0 °F 93% 29.91 in 4.0 mi WSW 3.5 mph - N/A   Overcast
10:16 AM 33.8 °F 30.8 °F 32.0 °F 93% 29.91 in 10.0 mi SSE 3.5 mph - N/A   Overcast
10:36 AM 33.8 °F 29.6 °F 32.0 °F 93% 29.91 in 10.0 mi South 4.6 mph - N/A   Overcast
10:56 AM 33.8 °F 30.8 °F 30.2 °F 87% 29.91 in 10.0 mi WSW 3.5 mph - N/A   Overcast
11:16 AM 33.8 °F 30.8 °F 30.2 °F 87% 29.91 in 10.0 mi SW 3.5 mph - N/A   Overcast
11:36 AM 33.8 °F 30.8 °F 30.2 °F 87% 29.91 in 10.0 mi SSW 3.5 mph - N/A   Overcast
11:56 AM 33.8 °F 30.8 °F 32.0 °F 93% 29.90 in 10.0 mi South 3.5 mph - N/A   Overcast
12:16 PM 33.8 °F - 32.0 °F 93% 29.91 in 10.0 mi Calm Calm - N/A   Overcast
12:36 PM 33.8 °F 30.8 °F 33.8 °F 100% 29.90 in 10.0 mi South 3.5 mph - N/A   Overcast
12:56 PM 33.8 °F - 32.0 °F 93% 29.90 in 10.0 mi Calm Calm - N/A   Mostly Cloudy
1:16 PM 33.8 °F 27.7 °F 30.2 °F 87% 29.90 in 10.0 mi West 6.9 mph - N/A   Mostly Cloudy
1:36 PM 33.8 °F 27.0 °F 32.0 °F 93% 29.89 in 10.0 mi WSW 8.1 mph - N/A   Mostly Cloudy
1:56 PM 33.8 °F 29.6 °F 32.0 °F 93% 29.90 in 10.0 mi SW 4.6 mph - N/A   Mostly Cloudy
2:16 PM 33.8 °F 30.8 °F 33.8 °F 100% 29.89 in 10.0 mi SE 3.5 mph - N/A   Mostly Cloudy
2:36 PM 33.8 °F - 32.0 °F 93% 29.89 in 10.0 mi Calm Calm - N/A   Mostly Cloudy
2:56 PM 33.8 °F - 33.8 °F 100% 29.90 in 10.0 mi Calm Calm - N/A   Mostly Cloudy
3:16 PM 33.8 °F - 32.0 °F 93% 29.89 in 10.0 mi Calm Calm - N/A   Mostly Cloudy
3:36 PM 33.8 °F 30.8 °F 30.2 °F 87% 29.90 in 10.0 mi South 3.5 mph - N/A   Mostly Cloudy
3:56 PM 33.8 °F 30.8 °F 30.2 °F 87% 29.90 in 10.0 mi SSW 3.5 mph - N/A   Mostly Cloudy
4:16 PM 33.8 °F 29.6 °F 32.0 °F 93% 29.89 in 10.0 mi SSW 4.6 mph - N/A   Mostly Cloudy
4:36 PM 33.8 °F 30.8 °F 30.2 °F 87% 29.90 in 10.0 mi SSW 3.5 mph - N/A   Mostly Cloudy
4:56 PM 33.8 °F - 30.2 °F 87% 29.90 in 7.0 mi Calm Calm - N/A   Overcast
5:16 PM 33.8 °F - 32.0 °F 93% 29.90 in 7.0 mi Calm Calm - N/A   Overcast
5:36 PM 33.8 °F 30.8 °F 32.0 °F 93% 29.90 in 7.0 mi SW 3.5 mph - N/A   Overcast
5:56 PM 33.8 °F 28.6 °F 30.2 °F 87% 29.89 in 5.0 mi WSW 5.8 mph - N/A   Mostly Cloudy
6:16 PM 33.8 °F - 32.0 °F 93% 29.89 in 5.0 mi Calm Calm - N/A   Mostly Cloudy
6:36 PM 33.8 °F - 30.2 °F 87% 29.89 in 5.0 mi Calm Calm - N/A   Mostly Cloudy
6:56 PM 32.0 °F 28.7 °F 30.2 °F 93% 29.89 in 1.5 mi SW 3.5 mph - N/A   Overcast
7:16 PM 32.0 °F - 30.2 °F 93% 29.90 in 1.5 mi Calm Calm - N/A   Overcast
7:36 PM 33.8 °F - 32.0 °F 93% 29.90 in 1.5 mi Calm Calm - N/A   Overcast
7:56 PM 32.0 °F - 30.2 °F 93% 29.90 in 2.5 mi Calm Calm - N/A   Mostly Cloudy
8:16 PM 30.2 °F - 30.2 °F 100% 29.90 in 0.8 mi Calm Calm - N/A   Mostly Cloudy
8:36 PM 32.0 °F - 30.2 °F 93% 29.90 in 0.8 mi Calm Calm - N/A   Mostly Cloudy
8:56 PM 32.0 °F - 30.2 °F 93% 29.90 in 0.8 mi Calm Calm - N/A   Mostly Cloudy
9:16 PM 32.0 °F - 30.2 °F 93% 29.90 in 0.8 mi Calm Calm - N/A   Mostly Cloudy
9:36 PM 32.0 °F 28.7 °F 30.2 °F 93% 29.90 in 0.8 mi SW 3.5 mph - N/A   Mostly Cloudy
9:56 PM 30.2 °F 26.7 °F 28.4 °F 93% 29.90 in 0.8 mi SW 3.5 mph - N/A   Mostly Cloudy
10:16 PM 32.0 °F 27.5 °F 30.2 °F 93% 29.90 in 0.2 mi WSW 4.6 mph - N/A   Overcast
10:36 PM 32.0 °F 27.5 °F 30.2 °F 93% 29.90 in 0.2 mi West 4.6 mph - N/A   Overcast
10:56 PM 32.0 °F - 30.2 °F 93% 29.90 in 0.2 mi Calm Calm - N/A   Overcast
11:16 PM 30.2 °F - 30.2 °F 100% 29.90 in 0.2 mi Calm Calm - N/A   Overcast
11:36 PM 30.2 °F 25.4 °F 30.2 °F 100% 29.90 in 0.2 mi West 4.6 mph - N/A   Overcast
11:56 PM 30.2 °F 26.7 °F 30.2 °F 100% 29.90 in 0.2 mi WSW 3.5 mph - N/A   Overcast